Home   Weather   Kitzbühel   Past weeks

Flag for Austria Past Weather in Kitzbühel, Tyrol, Austria — Yesterday and Last 2 Weeks

Now
46 °F

Cool.


Feels Like: 46 °F
Forecast: 25 / 59 °F
Wind: 1 mph from Northeast

Location: Kufstein

Current Time: Apr 23, 2017 at 8:26:14 pm

Latest Report: Apr 23, 2017 at 8:00 pm


Visibility: N/A

Pressure: 30.22 "Hg (27.58 "Hg at 750m altitude)

Humidity: 64%

Dew Point: 35 °F

Location of KitzbühelLocation

Past Weather in Kitzbühel — Graph

°F

Kitzbühel Temperature Yesterday

Maximum temperature yesterday: 59 °F (at 1:00 pm)
Minimum temperature yesterday: 32 °F (at 6:00 am)
Average temperature yesterday: 44 °F

High & Low Weather Summary for the Past Weeks

 TemperatureHumidityPressure
High70 °F (Apr 10, 6:00 pm)96% (Apr 19, 12:00 am)30.64 "Hg (Apr 19, 12:00 am)
Low27 °F (Apr 21, 7:00 am)33% (Apr 22, 2:00 pm)29.90 "Hg (Apr 12, 6:00 pm)
Average46 °F74%30.20 "Hg
* Reported Apr 8 6:00 pm — Apr 23 6:00 pm, Kitzbühel, Weather by CustomWeather, © 2017

Note: Actual official high and low records may vary slightly from our data, if they occured in-between our weather recording intervals... More about our weather records

Advertising

Kitzbühel Weather History for the Previous 24 Hours

Scroll right to see more
 ConditionsComfort  
Time TempWeatherWind HumidityBarometerVisibility
6:00 pm
Sun, Apr 23
48 °FCool.2 mph54%30.21 "HgN/A
5:00 pm49 °FCool.3 mph53%30.20 "HgN/A
4:00 pm49 °FCool.5 mph56%30.22 "HgN/A
3:00 pm48 °FCool.3 mph58%30.22 "HgN/A
2:00 pm47 °FCool.3 mph68%30.24 "HgN/A
1:00 pm43 °FQuite cool.2 mph75%30.26 "HgN/A
12:00 pm41 °FQuite cool.1 mph85%30.28 "HgN/A
11:00 am40 °FChilly.2 mph89%30.28 "HgN/A
10:00 am39 °FChilly.2 mph92%30.28 "HgN/A
9:00 am39 °FSprinkles. Cloudy.1 mph91%30.28 "HgN/A
8:00 am38 °FChilly.No wind93%30.28 "HgN/A
7:00 am38 °FSprinkles. Cloudy.No wind94%30.27 "HgN/A
6:00 am38 °FFog.No wind94%30.26 "HgN/A
5:00 am38 °FChilly.1 mph93%30.25 "HgN/A
4:00 am38 °FFog.2 mph93%30.25 "HgN/A
3:00 am39 °FSprinkles. Overcast.2 mph90%30.24 "HgN/A
2:00 am38 °FChilly.5 mph91%30.25 "HgN/A
1:00 am40 °FFog.3 mph87%30.24 "HgN/A
12:00 am40 °FFog.5 mph88%30.23 "HgN/A
11:00 pm
Sat, Apr 22
41 °FQuite cool.5 mph90%30.22 "HgN/A
10:00 pm45 °FFog.2 mph88%30.19 "HgN/A
8:00 pm48 °FCool.1 mph73%30.16 "HgN/A
Weather by CustomWeather, © 2017

See weather overviewHow to use our weather pages